User: anonymous   Login
Location: Kuppenheim
(48.8299°N, 8.2568°E)
Time: 15:16:04
(UTC+00:00)
Language:

Cosmos 990 Rocket - Orbit

View from above orbital plane
View from above orbital plane
View from above satellite
View from above satellite

Ground track
Ground track

The orbit data is extracted from the following two-line orbital elements,

1 10677U 78019B   21265.38919133 -.00000004  00000-0  70413-5 0  9994
2 10677  74.0373 302.1599 0015612 348.2270  11.8518 14.40199224286801
Epoch (UTC): 22 September 2021 09:20:26
Eccentricity: 0.0015612
inclination: 74.0373°
perigee height: 747 km
apogee height: 769 km
right ascension of ascending node: 302.1599°
argument of perigee: 348.2270°
revolutions per day: 14.40199224
mean anomaly at epoch: 11.8518°
orbit number at epoch: 28680

The dashed part of the orbit path shows where the satellite is in the earth's shadow,  

DLR